Regional Weather Roundup
Issued by NWS

Home | Current Version | Previous Version | Text Only | Print | Product List | Glossary On
Versions: 1 2 3 4 5 6 7 8 9 10 11 12 13 14 15 16 17 18 19 20 21 22 23 24 25 26 27 28 29 30 31 32 33 34 35 36 37 38 39 40 41 42 43 44 45 46 47 48 49 50
000
ASUS43 KBIS 271210
RWRND

NORTH DAKOTA REGIONAL WEATHER ROUNDUP
NATIONAL WEATHER SERVICE BISMARCK ND
600 AM CST TUE JAN 27 2015

NOTE: "FAIR" INDICATES FEW OR NO CLOUDS BELOW 12,000 FEET WITH NO
SIGNIFICANT WEATHER AND/OR OBSTRUCTIONS TO VISIBILITY.


NDZ001>003-009>011-017-271300-
NORTHWEST NORTH DAKOTA

CITY           SKY/WX    TMP DP  RH WIND       PRES   REMARKS
WILLISTON      MOCLDY    28  26  92 CALM      29.83F
6HR MIN TEMP:  27; 6HR MAX TEMP:  30;

MINOT          CLEAR     30  27  88 SE5       29.84F
MINOT AFB      CLEAR     27  27 100 E5        29.85S
$$

NDZ018>021-031>035-040>046-271300-
SOUTHWEST NORTH DAKOTA

CITY           SKY/WX    TMP DP  RH WIND       PRES   REMARKS
BISMARCK       MOCLDY    31  29  92 E8        29.92F
6HR MIN TEMP:  29; 6HR MAX TEMP:  31;

DICKINSON      PTCLDY    37  30  75 S7        29.83S
GARRISON         N/A     29  27  92 SE7       29.86F
6HR MIN TEMP:  29; 6HR MAX TEMP:  33;

HETTINGER ARPT CLEAR     32  28  85 CALM      29.88F
$$

NDZ004>008-012>016-024-026-027-054-271300-
NORTHEAST NORTH DAKOTA

CITY           SKY/WX    TMP DP  RH WIND       PRES   REMARKS
GRAND FORKS    FOG       26  24  92 SE9       30.04R VSB 3/4 WCI  17
GRND FRKS AFB  CLOUDY    24  23  94 S6        30.03S WCI  17
DEVILS LAKE    PTCLDY    27  25  93 S6        29.94R WCI  20
$$

NDZ022-023-025-028>030-036>039-047>053-271300-
SOUTHEAST NORTH DAKOTA

CITY           SKY/WX    TMP DP  RH WIND       PRES   REMARKS
FARGO          FOG       27  25  92 S9        30.06R VSB 1/2 WCI  18
6HR MIN TEMP:  26; 6HR MAX TEMP:  28;

JAMESTOWN      PTCLDY    28  26  92 S8        29.97F WCI  20
$$



USA.gov is the U.S. government's official web portal to all federal, state and local government web resources and services.